THORAD AGENA D DEB, 4652

Orbit data source: Space-Track

THORAD AGENA D DEB, 4652 is space debris in SSO originally from a launch on Wed, 08 Apr 1970 UTC launched from the Air Force Western Test Range (AFWTR). Debris objects in space refer to the collection of defunct objects orbiting the Earth. Examples of debris include non-operational satellites, rocket bodies, and fragments generated from explosions, collisions, or faulty payload assembly.

Loading next visibility...
THORAD AGENA D DEB details
Identifier
4652, 1970-025AL
Orbit
SSO
Last TLE update20 hours ago
Origin
Flag of USGSFC (US)
ManufacturerUnknown
MissionSpacecraft
Bus & MotorUnknown
MassUnknown
Launch date (UTC)
1970-04-08 (55 years ago)
Launch vehicleUnknown
Launch site
Air Force Western Test Range (AFWTR)
Object type
Payload
Rocket body
Debris
Shape & HBRUnknown
Radar Cross SectionSmall (<0.1 m²)

Expand to show TLE details & history

TLE from 20 hours ago
0 THORAD AGENA D DEB
1 04652U 70025AL  24360.60878907  .00002877  00000-0  23986-2 0  9995
2 04652  99.5633 127.6477 0031946 217.0238 154.0881 13.89090549742406
Epoch: 2024-12-25T14:36Z
Definitive object data (Epoch: 2024-12-25T14:36:39.375Z)
Latitude11.06581°
Longitude172.00516°
Altitude954.931 km
Speed7.365 km/s
True Right ascension08h 23m 04s
True Declination11° 00' 11"
Sunlit
Object was in full shadow at TLE epoch
Visualization TLE readout
Latitude-43.6147°
Longitude-176.05267°
Altitude952.937 km
Speed7.372 km/s
Apparent Right ascension04h 43m 39s
Apparent Declination-79° 14' 51"
Sunlit
Object is in daylight
Visualization observer readout
Local Sidereal Time10:26:34
Azimuth193.713° SSW
Elevation-38.297°
Doppler factor1
Orbital elements
Apogee altitude952.405 km
Perigee altitude905.718 km
Semi-major axis7,307.199 km
Eccentricity0.0031946
Inclination99.5633°
RAAN127.6477°
Arg. of periapsis217.0238°
True anomaly154.2475°
Mean anomaly154.0881°
Eccentric anomaly154.16786°
Mean motion3.4747 °/min
BSTAR0.0023986
Orbital period103.61 mins
Loading maneuver chart data...

THORAD AGENA D DEB Visibility forecast

Observer location: undefined°, undefined

Span
Click to sort rows by Start time (UTC) header in descending order
Start Az.
Max El. time (UTC)
Max El. Az.
Max El.
End time (UTC)
End Az.
8 mins2024-12-26 20:33:16.638Z43.663° NE2024-12-26 20:37:16.638Z89.438° E22.452°2024-12-26 20:41:16.638Z141.025° SSE
9 mins2024-12-26 22:16:16.638Z355.292° N2024-12-26 22:20:16.638Z284.825° WNW36.092°2024-12-26 22:25:16.638Z220.561° SW
10 mins2024-12-27 08:10:16.638Z143.554° SSE2024-12-27 08:15:16.638Z53.873° ENE39.498°2024-12-27 08:20:16.638Z354.934° N
7 mins2024-12-27 09:54:16.638Z228.487° WSW2024-12-27 09:57:16.638Z264.116° W19.837°2024-12-27 10:01:16.638Z310.016° NW
|